Home > Weather > Mashhad > Past weeks

Flag for Iran Past Weather in Mashhad, Iran — Yesterday and Last 2 Weeks

Now
72 °F

Clear.


Feels Like: 76 °F
Forecast: 61 / 89 °F
Wind: 5 mph from Southwest

Location: Mashhad Airport

Current Time: Jun 25, 2016 at 12:58:50 AM

Latest Report: Jun 25, 2016 at 12:00 AM


Visibility: 10 mi

Pressure: 29.98 "Hg (26.76 "Hg at 981m altitude)

Humidity: 31%

Dew Point: 39 °F

Location of MashhadLocation

Past Weather in Mashhad — Graph

°F

Mashhad Temperature Yesterday

Maximum temperature yesterday: 88 °F (at 12:30 PM)
Minimum temperature yesterday: 63 °F (at 4:00 AM)
Average temperature yesterday: 78 °F

High & Low Weather Summary for the Past Weeks

 TemperatureHumidityPressure
High99 °F (Jun 11, 2:30 PM)83% (Jun 14, 7:30 AM)30.15 "Hg (Jun 14, 7:30 AM)
Low61 °F (Jun 14, 7:00 AM)9% (Jun 11, 2:00 PM)29.74 "Hg (Jun 13, 5:00 PM)
Average79 °F29%29.99 "Hg
* Reported Jun 9 11:30 PM — Jun 25 12:00 AM, Mashhad, Weather by CustomWeather, © 2016

Note: Actual official high and low records may vary slightly from our data, if they occured in-between our weather recording intervals... More about our weather records

Advertising

Mashhad Weather History for the Previous 24 Hours

Scroll right to see more
 ConditionsComfort  
Time TempWeatherWind HumidityBarometerVisibility
12:00 AM
Sat, Jun 25
72 °FClear.5 mph31%29.98 "Hg10 mi
11:30 PM
Fri, Jun 24
72 °FClear.No wind29%30.01 "Hg10 mi
11:00 PM73 °FClear.5 mph25%29.98 "Hg10 mi
10:30 PM73 °FClear.5 mph22%29.98 "Hg10 mi
10:00 PM75 °FClear.5 mph22%29.98 "Hg10 mi
9:30 PM75 °FClear.7 mph22%29.98 "Hg10 mi
9:00 PM77 °FSunny.12 mph21%29.98 "Hg10 mi
8:30 PM79 °FSunny.12 mph18%29.98 "Hg10 mi
8:00 PM79 °FSunny.12 mph18%29.95 "Hg10 mi
7:30 PM82 °FSunny.12 mph14%29.95 "Hg10 mi
7:00 PM84 °FSunny.14 mph14%29.95 "Hg10 mi
6:30 PM86 °FSunny.14 mph11%29.95 "Hg10 mi
6:00 PM86 °FSunny.14 mph12%29.95 "Hg10 mi
5:30 PM88 °FSunny.16 mph11%29.95 "Hg10 mi
5:00 PM88 °FSunny.16 mph11%29.95 "Hg10 mi
4:30 PM88 °FSunny.16 mph11%29.95 "Hg10 mi
4:00 PM88 °FSunny.9 mph11%29.98 "Hg10 mi
3:30 PM88 °FSunny.14 mph11%29.98 "Hg10 mi
3:00 PM88 °FSunny.16 mph10%29.98 "Hg10 mi
2:30 PM86 °FSunny.16 mph11%29.98 "Hg10 mi
2:00 PM86 °FSunny.12 mph11%29.98 "Hg10 mi
1:30 PM88 °FSunny.14 mph11%29.98 "Hg10 mi
1:00 PM86 °FSunny.9 mph12%30.01 "Hg10 mi
12:30 PM88 °FSunny.14 mph12%30.01 "Hg10 mi
12:00 PM86 °FSunny.14 mph11%30.01 "Hg10 mi
11:30 AM84 °FSunny.12 mph13%30.01 "Hg10 mi
11:00 AM84 °FSunny.16 mph14%30.01 "Hg10 mi
10:30 AM84 °FSunny.12 mph14%30.04 "Hg10 mi
10:00 AM82 °FSunny.14 mph14%30.04 "Hg10 mi
9:30 AM82 °FSunny.9 mph14%30.04 "Hg10 mi
9:00 AM81 °FSunny.7 mph16%30.04 "Hg10 mi
8:30 AM79 °FSunny.9 mph18%30.04 "Hg10 mi
8:00 AM75 °FSunny.9 mph22%30.04 "Hg10 mi
7:30 AM73 °FSunny.7 mph25%30.04 "Hg10 mi
7:00 AM72 °FSunny.5 mph29%30.04 "Hg10 mi
6:30 AM72 °FClear.5 mph27%30.01 "Hg10 mi
6:00 AM66 °FClear.No wind37%30.01 "Hg10 mi
5:30 AM63 °FClear.5 mph39%30.01 "Hg10 mi
5:00 AM63 °FClear.5 mph39%30.01 "Hg10 mi
4:30 AM63 °FClear.5 mph39%30.01 "Hg10 mi
4:00 AM63 °FClear.No wind37%30.01 "Hg10 mi
3:30 AM66 °FClear.5 mph32%30.01 "Hg10 mi
3:00 AM66 °FClear.5 mph32%30.04 "Hg10 mi
2:30 AM66 °FClear.5 mph35%30.04 "Hg10 mi
1:30 AM68 °FClear.5 mph30%30.04 "Hg10 mi
1:00 AM70 °FClear.5 mph31%30.04 "Hg10 mi
12:30 AM70 °FClear.5 mph29%30.07 "Hg10 mi
12:00 AM70 °FClear.5 mph29%30.07 "Hg10 mi
Weather by CustomWeather, © 2016

See weather overviewHow to use our weather pages